Time,TemperatureF,DewpointF,PressureIn,WindDirection,WindDirectionDegrees,WindSpeedMPH,WindSpeedGustMPH,Humidity,HourlyPrecipIn,Conditions,Clouds,dailyrainin,SolarRadiationWatts/m^2,SoftwareType,DateUTC
2014-01-06 00:00:00,-3.0,-12.0,-100.00,NW,315,15.0,-999.0,64,-99.99,,,-99.99,0.000000,,2014-01-06 06:00:00,
2014-01-06 00:43:00,-3.0,-12.0,-100.00,NW,315,15.0,-999.0,64,-99.99,,,-99.99,0.000000,,2014-01-06 06:43:00,
2014-01-06 00:52:00,-3.0,-12.0,-100.00,NW,315,15.0,-999.0,64,-99.99,,,-99.99,0.000000,,2014-01-06 06:52:00,
2014-01-06 03:00:00,-6.0,-14.0,-100.00,NW,315,15.0,-999.0,69,-99.99,,,-99.99,0.000000,,2014-01-06 09:00:00,
2014-01-06 03:43:00,-6.0,-14.0,-100.00,NW,315,15.0,-999.0,69,-99.99,,,-99.99,0.000000,,2014-01-06 09:43:00,
2014-01-06 03:53:00,-6.0,-14.0,-100.00,NW,315,15.0,-999.0,69,-99.99,,,-99.99,0.000000,,2014-01-06 09:53:00,
2014-01-06 06:00:00,-9.0,-14.0,-100.00,NW,315,17.0,-999.0,75,-99.99,,,-99.99,0.000000,,2014-01-06 12:00:00,
2014-01-06 06:42:00,-9.0,-14.0,-100.00,NW,315,17.0,-999.0,75,-99.99,,,-99.99,0.000000,,2014-01-06 12:42:00,
2014-01-06 06:52:00,-9.0,-14.0,-100.00,NW,315,17.0,-999.0,75,-99.99,,,-99.99,0.000000,,2014-01-06 12:52:00,
2014-01-06 09:00:00,-15.0,-24.0,-100.00,WNW,292,18.0,-999.0,62,-99.99,,,-99.99,58.000000,,2014-01-06 15:00:00,
2014-01-06 09:44:00,-15.0,-24.0,-100.00,WNW,292,18.0,-999.0,62,-99.99,,,-99.99,58.000000,,2014-01-06 15:44:00,
2014-01-06 09:53:00,-15.0,-24.0,-100.00,WNW,292,18.0,-999.0,62,-99.99,,,-99.99,58.000000,,2014-01-06 15:53:00,
2014-01-06 12:00:00,-14.0,-24.0,-100.00,WNW,292,15.0,-999.0,56,-99.99,,,-99.99,392.079987,,2014-01-06 18:00:00,
2014-01-06 12:42:00,-14.0,-24.0,-100.00,WNW,292,15.0,-999.0,56,-99.99,,,-99.99,392.079987,,2014-01-06 18:42:00,
2014-01-06 12:52:00,-14.0,-24.0,-100.00,WNW,292,15.0,-999.0,56,-99.99,,,-99.99,392.079987,,2014-01-06 18:52:00,
2014-01-06 15:00:00,-14.0,-26.0,-100.00,West,270,12.0,-999.0,54,-99.99,,,-99.99,220.399994,,2014-01-06 21:00:00,
2014-01-06 15:43:00,-14.0,-26.0,-100.00,West,270,12.0,-999.0,54,-99.99,,,-99.99,220.399994,,2014-01-06 21:43:00,
2014-01-06 15:53:00,-14.0,-26.0,-100.00,West,270,12.0,-999.0,54,-99.99,,,-99.99,220.399994,,2014-01-06 21:53:00,
2014-01-06 18:00:00,-16.0,-26.0,-100.00,West,270,12.0,-999.0,58,-99.99,,,-99.99,0.000000,,2014-01-07 00:00:00,
2014-01-06 18:42:00,-16.0,-26.0,-100.00,West,270,12.0,-999.0,58,-99.99,,,-99.99,0.000000,,2014-01-07 00:42:00,
2014-01-06 18:52:00,-16.0,-26.0,-100.00,West,270,12.0,-999.0,58,-99.99,,,-99.99,0.000000,,2014-01-07 00:52:00,
2014-01-06 21:00:00,-17.0,-27.0,-100.00,West,270,12.0,-999.0,60,-99.99,,,-99.99,0.000000,,2014-01-07 03:00:00,
2014-01-06 21:43:00,-17.0,-27.0,-100.00,West,270,12.0,-999.0,60,-99.99,,,-99.99,0.000000,,2014-01-07 03:43:00,
2014-01-06 21:53:00,-17.0,-27.0,-100.00,West,270,12.0,-999.0,60,-99.99,,,-99.99,0.000000,,2014-01-07 03:53:00,